Location: Erfurt
(50.9688°N, 11.0193°E)
Time: 21:12:21
(UTC+01:00)

ISS - Pass Details

Date: 13 January 2018
Orbit: 402 x 407 km, 51.6° (Epoch: 23 January)

Event Time Altitude Azimuth Distance (km) Brightness Sun altitude
Exits shadow 05:33:29 25° 141° (SE) 868 -1.8 -24.5°
Drops below altitude 10° 05:35:04 10° 129° (SE) 1,464 -0.3 -24.2°
Sets 05:37:11 0° 123° (ESE) 2,323 1.0 -23.9°
